Flag for Romania Weather past 2 weeks in Bucharest, Romania

Now
64 °F

Scattered clouds.


Feels Like: 64 °F
Forecast: 58 / 68 °F
Wind: 10 mph from West

Location: Bucharest / Imh

Current Time: May 27, 2015 at 10:01:48 AM

Latest Report: May 27, 2015 at 9:30 AM


Visibility: N/A

Pressure: 29.71 "Hg

Humidity: 73%

Dew point: 55 °F

Location of BucharestLocation

Historic Weather in Bucharest — Graph

°F

Bucharest temperature yesterday

Maximum temperature yesterday: 75 °F (at 2:30 PM)
Minimum temperature yesterday: 59 °F (at 4:00 AM)
Average temperature yesterday: 67 °F

Past Weeks' High & Low Weather Summary

 TemperatureHumidityPressure
High84 °F (May 19, 3:30 PM)100% (May 13, 5:30 AM)30.30 "Hg (May 13, 5:30 AM)
Low52 °F (May 13, 5:00 AM)30% (May 21, 4:00 PM)29.68 "Hg (May 14, 6:00 PM)
Average68 °F64%29.93 "Hg
* Reported May 12 9:00 AM — May 27 9:00 AM, Bucharest, Weather by CustomWeather, © 2015

Note: Actual official high and low records may vary slightly from our data, if they occured in-between our weather recording intervals... More about our weather records

Advertising

Bucharest weather history for previous 24 hours

 ConditionsComfort  
Time TempWeatherWind HumidityBarometerVisibility
9:00 AM
Wed, May 27
64 °FPassing clouds.12 mph73%29.74 "HgN/A
8:30 AM64 °FPassing clouds.10 mph73%29.71 "HgN/A
8:00 AM61 °FPassing clouds.9 mph77%29.71 "HgN/A
7:30 AM61 °FSunny.10 mph77%29.71 "Hg10 mi
7:00 AM59 °FPassing clouds.9 mph82%29.71 "HgN/A
6:30 AM57 °FPassing clouds.8 mph88%29.71 "HgN/A
6:00 AM57 °FCool.5 mph82%29.71 "HgN/A
5:30 AM57 °FPassing clouds.3 mph82%29.71 "HgN/A
5:00 AM57 °FClear.7 mph82%29.71 "Hg10 mi
4:30 AM59 °FClear.7 mph77%29.71 "Hg10 mi
4:00 AM59 °FClear.5 mph77%29.71 "Hg10 mi
3:30 AM59 °FClear.5 mph77%29.71 "Hg10 mi
3:00 AM59 °FClear.7 mph77%29.71 "Hg10 mi
2:30 AM61 °FPassing clouds.6 mph72%29.71 "HgN/A
2:00 AM61 °FPassing clouds.6 mph72%29.71 "HgN/A
1:30 AM61 °FPassing clouds.6 mph72%29.71 "HgN/A
1:00 AM63 °FClear.6 mph68%29.71 "Hg10 mi
12:30 AM63 °FPassing clouds.7 mph68%29.71 "HgN/A
12:00 AM63 °FClear.5 mph68%29.71 "Hg10 mi
11:30 PM
Tue, May 26
64 °FClear.5 mph64%29.71 "Hg10 mi
11:00 PM64 °FClear.6 mph60%29.74 "Hg10 mi
10:30 PM66 °FPassing clouds.6 mph56%29.71 "HgN/A
10:00 PM66 °FPassing clouds.7 mph60%29.71 "HgN/A
9:30 PM68 °FSunny.7 mph60%29.71 "Hg10 mi
9:00 PM68 °FPassing clouds.8 mph69%29.71 "HgN/A
8:30 PM70 °FSunny.10 mph57%29.71 "Hg10 mi
8:00 PM70 °FPassing clouds.10 mph57%29.71 "HgN/A
7:30 PM72 °FPassing clouds.8 mph53%29.71 "HgN/A
7:00 PM72 °FPassing clouds.12 mph53%29.68 "HgN/A
6:30 PM73 °FPassing clouds.12 mph47%29.68 "HgN/A
6:00 PM73 °FScattered clouds.9 mph44%29.71 "HgN/A
5:30 PM73 °FSprinkles. Passing clouds.12 mph47%29.71 "HgN/A
5:00 PM75 °FPassing clouds.10 mph41%29.71 "HgN/A
4:30 PM75 °FPassing clouds.12 mph41%29.71 "HgN/A
4:00 PM75 °FPassing clouds.10 mph39%29.71 "HgN/A
3:30 PM75 °FPassing clouds.10 mph39%29.71 "HgN/A
3:00 PM75 °FPassing clouds.9 mph44%29.74 "HgN/A
2:30 PM75 °FPassing clouds.9 mph44%29.74 "HgN/A
2:00 PM73 °FPassing clouds.8 mph47%29.74 "HgN/A
1:30 PM73 °FPassing clouds.10 mph47%29.74 "HgN/A
1:00 PM73 °FPassing clouds.12 mph50%29.74 "HgN/A
12:30 PM73 °FPassing clouds.12 mph53%29.74 "HgN/A
12:00 PM72 °FPassing clouds.10 mph57%29.74 "HgN/A
11:30 AM70 °FPassing clouds.8 mph64%29.74 "HgN/A
11:00 AM70 °FPassing clouds.9 mph64%29.74 "HgN/A
10:30 AM68 °FPassing clouds.9 mph69%29.74 "HgN/A
10:00 AM66 °FPassing clouds.10 mph78%29.74 "HgN/A
Weather by CustomWeather, © 2015

See weather overviewHow to use our weather pages